Simultaneous Nadir Overpasses (SNOs) Predictions

Prediction of SNOs between GOES-15 and METOP-C Satellite Orbit:

Table of predicted SNOs for the next 14.0 days since TLE Epoch: 10/28/2023
Index Date Time (GOES-15) GOES-15 Lat,Lon METOP-C Lat,Lon Distance(km) Time Diff (sec)
1 10/28/2023 17:15:41 0.30, 67.44 -0.52, 63.82 412.27 80
2 10/29/2023 16:52:26 0.30, 66.39 0.82, 68.77 270.82 80
3 10/31/2023 05:14:03 -0.30, 64.65 -0.16, 64.13 59.70 80
4 11/01/2023 17:33:09 0.29, 63.15 -0.53, 59.46 420.45 80
5 11/02/2023 17:09:54 0.29, 62.11 0.82, 64.41 262.27 80
6 11/04/2023 05:31:31 -0.28, 60.38 -0.15, 59.77 69.16 80
7 11/05/2023 17:50:36 0.27, 58.88 -0.58, 55.11 429.43 80
8 11/06/2023 17:27:21 0.27, 57.84 0.78, 60.05 253.08 80
9 11/08/2023 05:48:58 -0.27, 56.12 -0.11, 55.42 79.25 80
10 11/09/2023 18:08:03 0.26, 54.61 -0.59, 50.76 439.03 80
11 11/10/2023 17:44:47 0.27, 53.57 0.72, 55.71 243.04 80
